Location: East Irvine
(33.6759°N, 117.7598°W)
Time: 14:29:48
(UTC+00:00)

Cosmos 44 Rocket - Visible Passes

Search period start: 14 February 2026 00:00
Search period end: 24 February 2026 00:00
Orbit: 633 x 744 km, 65.1° (Epoch: 13 February)

Date Brightness Start Highest point End Pass type
(mag) Time Alt. Az. Time Alt. Az. Time Alt. Az.
14 Feb 3.3 02:03:22 10° SSW 02:08:11 90° W 02:13:13 10° NNE visible
14 Feb 6.2 03:48:48 10° WNW 03:50:19 11° NW 03:51:52 10° NNW visible
15 Feb 5.3 02:43:59 10° WSW 02:48:07 27° NW 02:52:23 10° N visible
17 Feb 5.6 02:22:28 10° WSW 02:26:19 23° NW 02:30:17 10° N visible
19 Feb 5.8 02:01:00 10° W 02:04:31 19° NW 02:08:07 10° N visible
